Regional Weather Roundup
Issued by NWS Albany, NY

Current Version | Previous Version | Text Only | Print | Product List | Glossary On
Versions: 1 2 3 4 5 6 7 8 9 10 11 12 13 14 15 16 17 18 19 20 21 22 23 24 25 26 27 28 29 30 31 32 33 34 35 36 37 38 39 40 41 42
000
ASUS41 KALY 290410
RWRALY

NEW YORK STATE HOURLY WEATHER ROUNDUP
NATIONAL WEATHER SERVICE ALBANY NY
1100 PM EST FRI FEB 28 2020

NOTE: "FAIR" INDICATES FEW OR NO CLOUDS BELOW 12,000 FEET WITH NO
SIGNIFICANT WEATHER AND/OR NO OBSTRUCTIONS TO VISIBILITY.

NYZ032-033-038>043-046>054-057>066-NYZ062>081-082-084-290500-
EAST


CITY           SKY/WX    TMP DP  RH WIND       PRES   REMARKS
ALBANY         FAIR      25  18  74 SW7       29.79F WCI  17
GLENS FALLS    FAIR      25  13  60 SW7       29.75S WCI  17
POUGHKEEPSIE   FAIR      22  13  68 CALM      29.81F
NEWBURGH       PTCLDY    27  12  54 W9        29.81R WCI  17
MONTGOMERY     FAIR      28   7  41 W10       29.80S WCI  19
WHITE PLAINS   MOCLDY    33   6  32 W13       29.81S WCI  24
ISLIP          MOCLDY    32  14  47 NW3       29.83S
NEW YORK CITY  MOCLDY    37   8  30 W25       29.84S WCI  25
CENTRAL PARK   CLOUDY    36   8  31 W10G22    29.86S WCI  28
$$

NYZ005>009-017-018-044>046-055-056-290500-
CENTRAL


CITY           SKY/WX    TMP DP  RH WIND       PRES   REMARKS
FULTON         CLOUDY    24  13  62 SW13      29.75F WCI  12
SYRACUSE       MOCLDY    25  15  66 W22G28    29.76F WCI  10
ROME           CLOUDY    24  15  68 W13       29.77F WCI  12
ELMIRA         CLOUDY    25   9  50 W8        29.79S WCI  16
BINGHAMTON     CLOUDY    21  10  62 W10       29.72F WCI  10
MONTICELLO     FLURRIES  23  11  60 NW17      29.77R WCI   9
$$

NYZ026>034-041>043-087-290500-
NORTH


CITY           SKY/WX    TMP DP  RH WIND       PRES   REMARKS
WATERTOWN      CLOUDY    20  14  77 NW3       29.74S
FORT DRUM      NOT AVBL
OGDENSBURG     LGT SNOW  14  10  85 NW7       29.72R WCI   4
MASSENA        LGT SNOW  15   9  76 N8        29.75S WCI   4
SARANAC LAKE   CLOUDY    16  10  77 W9        29.59S WCI   4
PLATTSBURGH    FLURRIES  23  15  71 VRB3      29.71R
$$

NYZ001>004-010>016-019>021-085-290500-
WEST


CITY           SKY/WX    TMP DP  RH WIND       PRES   REMARKS
NIAGARA FALLS  LGT SNOW  23  16  74 W17G30    29.78S WCI   9
BUFFALO        FLURRIES  24  15  68 W22G29    29.77F WCI   9
DUNKIRK        MIX PCPN  26  13  57 W12G26    29.82F WCI  16
JAMESTOWN      LGT SNOW  18  16  93 W14       29.77F FOG     WCI   4
WELLSVILLE     LGT SNOW  17  11  77 SW14G22   29.72F WCI   3
ROCHESTER      FLURRIES  24  14  65 W16G23    29.77S WCI  11
PENN YAN       LGT SNOW  22  16  78 SW10      29.77F WCI  11
$$

             KEY
       WCI = WIND CHILL INDEX
       VSB = VISIBILITY
       HX  = HEAT INDEX
$$



USA.gov is the U.S. government's official web portal to all federal, state and local government web resources and services.